K4AXV-13 Weather Reports


time (UTC)temp
C
wind
direction
speed
KPH
gust
KPH
rain 1hr
cm
rain 24hr
cm
rain mn
cm
humidity
%
barometer
mb
20260510195641 30 231 0.0 0.0 0.00 0.00 0.00
20260510194639 30 252 0.0 6.4 0.00 0.00 0.00
20260510193638 30 311 3.2 4.8 0.00 0.00 0.00
20260510193139 30 305 4.8 6.4 0.00 0.00 0.00
20260510192637 30 93 0.0 3.2 0.00 0.00 0.00
20260510192138 30 336 0.0 6.4 0.00 0.00 0.00
20260510191636 30 304 0.0 0.0 0.00 0.00 0.00
20260510191137 30 312 4.8 1.6 0.00 0.00 0.00
20260510190635 30 308 3.2 6.4 0.00 0.00 0.00
20260510190136 30 98 0.0 0.0 0.00 0.00 0.00
20260510185634 30 293 0.0 0.0 0.00 0.00 0.00
20260510185135 30 200 0.0 0.0 0.00 0.00 0.00
20260510184633 30 333 3.2 3.2 0.00 0.00 0.00
20260510184134 30 293 4.8 8.0 0.00 0.00 0.00
20260510183633 30 11 1.6 4.8 0.00 0.00 0.00
20260510183134 29 89 3.2 3.2 0.00 0.00 0.00
20260510182632 29 136 4.8 4.8 0.00 0.00 0.00
20260510182133 30 165 3.2 3.2 0.00 0.00 0.00
20260510181631 30 302 1.6 0.0 0.00 0.00 0.00
20260510181132 29 44 3.2 1.6 0.00 0.00 0.00
20260510180630 30 260 0.0 1.6 0.00 0.00 0.00
20260510180131 30 260 0.0 0.0 0.00 0.00 0.00
20260510175628 30 260 6.4 0.0 0.00 0.00 0.00
20260510174624 30 277 3.2 1.6 0.00 0.00 0.00
20260510174125 30 242 1.6 0.0 0.00 0.00 0.00
20260510173623 29 323 0.0 0.0 0.00 0.00 0.00
20260510173124 29 323 0.0 0.0 0.00 0.00 0.00
20260510172622 28 56 1.6 0.0 0.00 0.00 0.00
20260510172123 29 319 0.0 4.8 0.00 0.00 0.00
20260510171621 30 326 0.0 0.0 0.00 0.00 0.00
20260510170621 29 118 1.6 4.8 0.00 0.00 0.00
20260510170122 29 260 4.8 0.0 0.00 0.00 0.00
20260510165620 29 238 1.6 6.4 0.00 0.00 0.00
20260510165121 29 236 4.8 0.0 0.00 0.00 0.00
20260510164619 29 267 3.2 0.0 0.00 0.00 0.00
20260510164120 29 249 6.4 3.2 0.00 0.00 0.00
20260510164034 30 330 4.8 4.8 0.00 0.00 0.00
20260510163628 28 257 0.0 4.8 0.00 0.00 0.00
20260510163618 30 330 4.8 4.8 0.00 0.00 0.00
20260510163119 28 257 0.0 4.8 0.00 0.00 0.00
20260510162117 28 270 1.6 0.0 0.00 0.00 0.00
20260510161116 29 325 1.6 3.2 0.00 0.00 0.00
20260510155613 28 162 1.6 3.2 0.00 0.00 0.00
20260510155212 27 72 3.2 1.6 0.00 0.00 0.00
20260510154612 27 72 3.2 1.6 0.00 0.00 0.00
20260510154113 27 288 0.0 6.4 0.00 0.00 0.00
20260510153611 27 277 1.6 0.0 0.00 0.00 0.00
20260510153112 27 333 3.2 1.6 0.00 0.00 0.00
20260510152610 26 276 0.0 0.0 0.00 0.00 0.00
20260510152111 26 136 0.0 1.6 0.00 0.00 0.00
20260510151607 26 55 1.6 1.6 0.00 0.00 0.00
20260510150607 26 308 1.6 3.2 0.00 0.00 0.00
20260510150400 25 248 1.6 0.0 0.00 0.00 0.00
20260510150108 25 58 0.0 0.0 0.00 0.00 0.00
20260510145606 25 248 1.6 0.0 0.00 0.00 0.00
20260510145535 25 328 4.8 3.2 0.00 0.00 0.00
20260510145149 24 336 4.8 1.6 0.00 0.00 0.00
20260510145107 25 328 4.8 3.2 0.00 0.00 0.00
20260510144606 24 336 4.8 1.6 0.00 0.00 0.00
20260510144351 24 132 0.0 0.0 0.00 0.00 0.00
20260510143605 24 132 0.0 0.0 0.00 0.00 0.00
20260510143334 23 21 3.2 0.0 0.00 0.00 0.00
20260510143106 23 128 0.0 3.2 0.00 0.00 0.00
20260510142607 23 305 3.2 3.2 0.00 0.00 0.00
20260510142604 23 21 3.2 0.0 0.00 0.00 0.00
20260510142132 23 257 0.0 1.6 0.00 0.00 0.00
20260510142105 23 305 3.2 3.2 0.00 0.00 0.00
20260510141603 23 257 0.0 1.6 0.00 0.00 0.00
20260510141339 22 326 3.2 3.2 0.00 0.00 0.00
20260510140603 22 326 3.2 3.2 0.00 0.00 0.00
20260510135542 21 240 1.6 3.2 0.00 0.00 0.00
20260510135102 21 240 1.6 3.2 0.00 0.00 0.00
20260510134600 21 239 4.8 6.4 0.00 0.00 0.00
20260510134254 21 280 0.0 4.8 0.00 0.00 0.00
20260510134101 21 280 0.0 4.8 0.00 0.00 0.00
20260510133558 21 273 1.6 3.2 0.00 0.00 0.00
20260510133339 21 208 1.6 1.6 0.00 0.00 0.00
20260510133059 21 208 1.6 1.6 0.00 0.00 0.00
20260510133021 21 280 3.2 3.2 0.00 0.00 0.00
20260510132558 21 280 3.2 3.2 0.00 0.00 0.00
20260510132511 21 342 3.2 4.8 0.00 0.00 0.00
20260510132058 21 342 3.2 4.8 0.00 0.00 0.00
20260510131556 21 312 1.6 3.2 0.00 0.00 0.00
20260510130907 20 194 0.0 0.0 0.00 0.00 0.00
20260510130554 20 194 0.0 0.0 0.00 0.00 0.00
20260510130316 21 307 4.8 3.2 0.00 0.00 0.00
20260510130055 21 307 4.8 3.2 0.00 0.00 0.00
20260510125845 20 349 4.8 6.4 0.00 0.00 0.00
20260510125551 20 349 4.8 6.4 0.00 0.00 0.00
20260510125330 20 0 1.6 1.6 0.00 0.00 0.00
20260510125052 20 0 1.6 1.6 0.00 0.00 0.00
20260510124738 21 322 0.0 0.0 0.00 0.00 0.00
20260510124549 21 322 0.0 0.0 0.00 0.00 0.00
20260510123354 20 322 3.2 3.2 0.00 0.00 0.00
20260510123050 20 322 3.2 3.2 0.00 0.00 0.00
20260510122354 20 11 0.0 0.0 0.00 0.00 0.00
20260510122232 20 323 1.6 3.2 0.00 0.00 0.00
20260510122050 20 11 0.0 0.0 0.00 0.00 0.00
20260510121548 20 323 1.6 3.2 0.00 0.00 0.00
20260510121050 20 347 3.2 1.6 0.00 0.00 0.00
20260510120547 20 347 3.2 1.6 0.00 0.00 0.00
20260510120459 19 249 0.0 0.0 0.00 0.00 0.00
20260510120049 19 249 0.0 0.0 0.00 0.00 0.00
20260510115043 19 263 1.6 0.0 0.00 0.00 0.00
20260510113501 20 335 0.0 0.0 0.00 0.00 0.00
20260510113037 18 335 0.0 0.0 0.00 0.00 0.00
20260510112533 18 335 0.0 0.0 0.00 0.00 0.00
20260510112034 18 335 0.0 0.0 0.00 0.00 0.00
20260510111825 18 335 0.0 0.0 0.00 0.00 0.00
20260510111531 18 335 0.0 0.0 0.00 0.00 0.00
20260510111459 18 335 0.0 0.0 0.00 0.00 0.00
20260510111154 18 335 0.0 0.0 0.00 0.00 0.00
20260510111032 18 335 0.0 0.0 0.00 0.00 0.00
20260510110531 18 335 0.0 0.0 0.00 0.00 0.00
20260510110410 18 346 0.0 0.0 0.00 0.00 0.00
20260510110032 18 345 0.0 1.6 0.00 0.00 0.00
20260510105528 18 346 0.0 0.0 0.00 0.00 0.00
20260510105029 18 346 0.0 0.0 0.00 0.00 0.00
20260510104948 18 346 0.0 0.0 0.00 0.00 0.00
20260510104526 18 346 0.0 0.0 0.00 0.00 0.00
20260510103813 19 342 0.0 0.0 0.00 0.00 0.00
20260510103522 18 342 0.0 0.0 0.00 0.00 0.00
20260510102522 19 342 0.0 0.0 0.00 0.00 0.00
20260510102023 18 342 0.0 0.0 0.00 0.00 0.00
20260510100521 19 342 0.0 0.0 0.00 0.00 0.00
20260510095858 18 343 0.0 0.0 0.00 0.00 0.00
20260510095518 18 343 0.0 0.0 0.00 0.00 0.00
20260510095306 19 343 0.0 0.0 0.00 0.00 0.00
20260510095113 19 343 0.0 0.0 0.00 0.00 0.00
20260510095019 19 343 0.0 0.0 0.00 0.00 0.00
20260510094517 19 343 0.0 0.0 0.00 0.00 0.00
20260510094447 18 343 0.0 0.0 0.00 0.00 0.00
20260510094018 18 343 0.0 0.0 0.00 0.00 0.00
20260510093520 19 343 0.0 0.0 0.00 0.00 0.00
20260510093516 18 343 0.0 0.0 0.00 0.00 0.00
20260510093017 19 343 0.0 0.0 0.00 0.00 0.00
20260510092515 18 343 0.0 0.0 0.00 0.00 0.00
20260510092015 18 343 0.0 0.0 0.00 0.00 0.00
20260510091549 19 343 0.0 0.0 0.00 0.00 0.00
20260510091513 19 343 0.0 0.0 0.00 0.00 0.00
20260510091111 19 343 0.0 0.0 0.00 0.00 0.00
20260510091015 19 343 0.0 0.0 0.00 0.00 0.00
20260510090510 19 343 0.0 0.0 0.00 0.00 0.00
20260510090439 19 343 0.0 0.0 0.00 0.00 0.00
20260510090011 19 343 0.0 0.0 0.00 0.00 0.00
20260510085509 18 343 0.0 0.0 0.00 0.00 0.00
20260510085010 19 343 0.0 0.0 0.00 0.00 0.00
20260510084508 19 343 0.0 0.0 0.00 0.00 0.00
20260510084219 20 343 0.0 0.0 0.00 0.00 0.00
20260510084009 19 343 0.0 0.0 0.00 0.00 0.00
20260510083507 20 343 0.0 0.0 0.00 0.00 0.00
20260510083335 20 343 0.0 0.0 0.00 0.00 0.00
20260510083008 20 343 0.0 0.0 0.00 0.00 0.00
20260510082506 20 343 0.0 0.0 0.00 0.00 0.00
20260510082007 19 343 0.0 0.0 0.00 0.00 0.00
20260510081754 20 343 0.0 0.0 0.00 0.00 0.00
20260510081506 20 343 0.0 0.0 0.00 0.00 0.00
20260510081007 18 343 0.0 0.0 0.00 0.00 0.00
20260510080503 19 326 0.0 0.0 0.00 0.00 0.00
20260510080004 19 326 0.0 0.0 0.00 0.00 0.00
20260510075502 20 346 0.0 0.0 0.00 0.00 0.00
20260510075003 18 346 1.6 0.0 0.00 0.00 0.00
20260510074501 19 342 1.6 0.0 0.00 0.00 0.00
20260510074002 20 340 0.0 0.0 0.00 0.00 0.00
20260510073002 20 340 0.0 0.0 0.00 0.00 0.00
20260510072917 20 347 0.0 0.0 0.00 0.00 0.00
20260510072500 20 347 0.0 0.0 0.00 0.00 0.00
20260510071000 20 347 1.6 1.6 0.00 0.00 0.00
20260510070458 20 346 1.6 1.6 0.00 0.00 0.00
20260510070234 20 350 1.6 1.6 0.00 0.00 0.00
20260510070000 20 350 1.6 1.6 0.00 0.00 0.00
20260510065458 20 349 1.6 0.0 0.00 0.00 0.00
20260510065138 20 350 0.0 0.0 0.00 0.00 0.00
20260510064959 20 350 0.0 0.0 0.00 0.00 0.00
20260510064730 20 354 0.0 3.2 0.00 0.00 0.00
20260510064457 20 354 0.0 3.2 0.00 0.00 0.00
20260510064254 20 240 0.0 0.0 0.00 0.00 0.00
20260510063959 20 240 0.0 0.0 0.00 0.00 0.00
20260510063804 20 240 0.0 0.0 0.00 0.00 0.00
20260510063457 20 240 0.0 0.0 0.00 0.00 0.00
20260510062958 20 240 0.0 0.0 0.00 0.00 0.00
20260510062714 19 240 0.0 0.0 0.00 0.00 0.00
20260510062456 19 240 0.0 0.0 0.00 0.00 0.00
20260510061957 19 240 0.0 0.0 0.00 0.00 0.00
20260510061455 19 240 0.0 0.0 0.00 0.00 0.00
20260510060956 20 240 0.0 0.0 0.00 0.00 0.00
20260510060455 19 248 0.0 0.0 0.00 0.00 0.00
20260510060324 19 248 0.0 1.6 0.00 0.00 0.00
20260510055956 19 248 0.0 1.6 0.00 0.00 0.00
20260510055454 20 248 0.0 0.0 0.00 0.00 0.00
20260510055344 20 276 0.0 0.0 0.00 0.00 0.00
20260510054955 20 276 0.0 0.0 0.00 0.00 0.00
20260510054453 19 276 0.0 0.0 0.00 0.00 0.00
20260510053954 20 276 0.0 0.0 0.00 0.00 0.00
20260510053805 19 276 0.0 0.0 0.00 0.00 0.00
20260510053453 19 276 0.0 0.0 0.00 0.00 0.00
20260510053422 20 276 0.0 0.0 0.00 0.00 0.00
20260510052953 20 276 0.0 0.0 0.00 0.00 0.00
20260510052836 20 276 0.0 0.0 0.00 0.00 0.00
20260510052455 19 276 0.0 0.0 0.00 0.00 0.00
20260510052451 20 276 0.0 0.0 0.00 0.00 0.00
20260510051952 19 276 0.0 0.0 0.00 0.00 0.00
20260510051451 20 276 0.0 0.0 0.00 0.00 0.00
20260510050952 19 276 0.0 0.0 0.00 0.00 0.00
20260510050851 19 311 0.0 0.0 0.00 0.00 0.00
20260510050450 19 311 0.0 0.0 0.00 0.00 0.00
20260510050338 20 311 0.0 0.0 0.00 0.00 0.00
20260510045952 20 311 0.0 0.0 0.00 0.00 0.00
20260510045448 19 311 0.0 0.0 0.00 0.00 0.00
20260510045054 19 311 0.0 0.0 0.00 0.00 0.00
20260510044949 20 311 0.0 0.0 0.00 0.00 0.00
20260510044446 19 311 0.0 0.0 0.00 0.00 0.00
20260510043703 20 311 0.0 0.0 0.00 0.00 0.00
20260510043444 20 311 0.0 0.0 0.00 0.00 0.00
20260510042945 19 311 0.0 0.0 0.00 0.00 0.00
20260510042443 18 311 0.0 0.0 0.00 0.00 0.00
20260510041945 19 311 0.0 0.0 0.00 0.00 0.00
20260510041441 19 311 0.0 0.0 0.00 0.00 0.00
20260510041105 20 311 0.0 0.0 0.00 0.00 0.00
20260510040942 19 311 0.0 0.0 0.00 0.00 0.00
20260510040440 20 311 0.0 0.0 0.00 0.00 0.00
20260510035941 20 311 0.0 0.0 0.00 0.00 0.00
20260510035651 20 311 0.0 0.0 0.00 0.00 0.00
20260510035440 20 311 0.0 0.0 0.00 0.00 0.00
20260510034508 20 311 0.0 0.0 0.00 0.00 0.00
20260510034437 20 311 0.0 0.0 0.00 0.00 0.00
20260510033938 19 311 0.0 0.0 0.00 0.00 0.00
20260510033436 20 311 0.0 0.0 0.00 0.00 0.00
20260510032938 20 311 0.0 0.0 0.00 0.00 0.00
20260510032851 20 311 0.0 0.0 0.00 0.00 0.00
20260510032436 20 311 0.0 0.0 0.00 0.00 0.00
20260510032038 20 311 0.0 0.0 0.00 0.00 0.00
20260510031937 20 311 0.0 0.0 0.00 0.00 0.00
20260510031434 20 311 0.0 0.0 0.00 0.00 0.00
20260510030936 20 311 0.0 0.0 0.00 0.00 0.00
20260510030433 20 311 0.0 0.0 0.00 0.00 0.00
20260510030034 20 311 0.0 0.0 0.00 0.00 0.00
20260510025934 20 311 0.0 0.0 0.00 0.00 0.00
20260510025535 20 311 0.0 0.0 0.00 0.00 0.00
20260510025432 20 311 0.0 0.0 0.00 0.00 0.00
20260510023957 20 311 0.0 0.0 0.00 0.00 0.00
20260510023933 20 311 0.0 0.0 0.00 0.00 0.00
20260510023431 20 311 0.0 0.0 0.00 0.00 0.00
20260510023117 21 311 0.0 0.0 0.00 0.00 0.00
20260510022430 20 311 0.0 0.0 0.00 0.00 0.00
20260510021931 21 311 0.0 0.0 0.00 0.00 0.00
20260510021429 21 311 0.0 0.0 0.00 0.00 0.00
20260510020930 21 311 0.0 0.0 0.00 0.00 0.00
20260510020133 21 311 0.0 0.0 0.00 0.00 0.00
20260510015929 21 311 0.0 0.0 0.00 0.00 0.00
20260510015428 21 311 0.0 0.0 0.00 0.00 0.00
20260510014929 21 311 0.0 0.0 0.00 0.00 0.00
20260510014427 21 311 0.0 0.0 0.00 0.00 0.00
20260510013836 21 311 0.0 0.0 0.00 0.00 0.00
20260510013426 21 311 0.0 0.0 0.00 0.00 0.00
20260510012425 21 311 0.0 0.0 0.00 0.00 0.00
20260510011927 21 311 0.0 0.0 0.00 0.00 0.00
20260510011425 21 311 0.0 0.0 0.00 0.00 0.00
20260510010926 21 311 0.0 0.0 0.00 0.00 0.00
20260510010615 21 311 0.0 0.0 0.00 0.00 0.00
20260510010424 21 311 0.0 0.0 0.00 0.00 0.00
20260510005925 21 311 0.0 0.0 0.00 0.00 0.00
20260510005424 21 311 0.0 0.0 0.00 0.00 0.00
20260510005300 22 311 0.0 0.0 0.00 0.00 0.00
20260510004925 21 311 0.0 0.0 0.00 0.00 0.00
20260510004423 22 311 0.0 0.0 0.00 0.00 0.00
20260510003924 22 311 0.0 0.0 0.00 0.00 0.00
20260510003423 22 311 0.0 0.0 0.00 0.00 0.00
20260510002924 22 311 0.0 0.0 0.00 0.00 0.00
20260510002422 22 311 0.0 0.0 0.00 0.00 0.00
20260510001922 22 311 0.0 0.0 0.00 0.00 0.00
20260510001420 22 311 0.0 0.0 0.00 0.00 0.00
20260510000921 22 311 0.0 0.0 0.00 0.00 0.00
20260510000420 22 311 0.0 0.0 0.00 0.00 0.00
20260509235419 22 311 0.0 0.0 0.00 0.00 0.00
20260509234920 23 311 0.0 0.0 0.00 0.00 0.00
20260509234418 23 311 0.0 0.0 0.00 0.00 0.00
20260509233920 23 311 0.0 0.0 0.00 0.00 0.00
20260509232919 23 311 0.0 0.0 0.00 0.00 0.00
20260509232417 23 311 0.0 0.0 0.00 0.00 0.00
20260509231918 24 311 0.0 0.0 0.00 0.00 0.00
20260509230918 24 311 0.0 0.0 0.00 0.00 0.00
20260509230416 24 311 0.0 0.0 0.00 0.00 0.00
20260509225917 24 345 0.0 0.0 0.00 0.00 0.00
20260509225415 24 18 0.0 0.0 0.00 0.00 0.00
20260509224916 24 13 0.0 0.0 0.00 0.00 0.00
20260509224415 24 13 3.2 0.0 0.00 0.00 0.00
20260509223916 24 332 1.6 3.2 0.00 0.00 0.00
20260509223414 25 24 1.6 0.0 0.00 0.00 0.00
20260509222915 24 347 3.2 0.0 0.00 0.00 0.00
20260509222413 25 356 3.2 0.0 0.00 0.00 0.00
20260509221914 25 352 1.6 3.2 0.00 0.00 0.00
20260509221413 25 353 0.0 0.0 0.00 0.00 0.00
20260509220914 25 6 0.0 3.2 0.00 0.00 0.00
20260509220412 25 228 0.0 0.0 0.00 0.00 0.00
20260509215913 25 316 3.2 0.0 0.00 0.00 0.00
20260509215412 25 301 0.0 3.2 0.00 0.00 0.00
20260509214913 25 273 3.2 0.0 0.00 0.00 0.00
20260509214411 25 305 0.0 0.0 0.00 0.00 0.00
20260509213410 25 217 0.0 1.6 0.00 0.00 0.00
20260509212911 25 255 3.2 1.6 0.00 0.00 0.00
20260509212409 25 274 1.6 3.2 0.00 0.00 0.00
20260509211911 25 264 4.8 3.2 0.00 0.00 0.00
20260509211409 25 332 3.2 1.6 0.00 0.00 0.00
20260509210910 25 203 0.0 0.0 0.00 0.00 0.00
20260509205909 25 263 0.0 0.0 0.00 0.00 0.00
20260509205408 25 263 3.2 0.0 0.00 0.00 0.00
20260509204909 25 315 3.2 1.6 0.00 0.00 0.00
20260509204407 25 249 3.2 1.6 0.00 0.00 0.00
20260509203908 25 323 3.2 1.6 0.00 0.00 0.00
20260509203406 25 307 3.2 0.0 0.00 0.00 0.00
20260509202908 25 319 3.2 6.4 0.00 0.00 0.00
20260509202406 25 300 3.2 1.6 0.00 0.00 0.00
20260509201907 25 323 0.0 4.8 0.00 0.00 0.00
20260509201405 25 342 6.4 0.0 0.00 0.00 0.00
20260509200907 25 352 4.8 8.0 0.00 0.00 0.00
20260509200405 25 347 0.0 0.0 0.00 0.00 0.00